FW0371 Weather Reports


Display with metric or nautical units.
time (UTC)temp
F
wind
direction
speed
MPH
gust
MPH
rain 1hr
in
rain 24hr
in
rain mn
in
humidity
%
barometer
mb
20260503040004 62 286 8.0 14.0 0.00 0.00 0.00 45 1013.8
20260503034503 62 286 9.0 16.0 0.00 0.00 0.00 47 1014.0
20260503033003 62 280 9.0 17.0 0.00 0.00 0.00 46 1013.9
20260503031503 62 297 12.0 24.0 0.00 0.00 0.00 45 1013.7
20260503030003 61 294 12.0 23.0 0.00 0.00 0.00 49 1013.6
20260503024503 62 273 13.0 21.0 0.00 0.00 0.00 46 1013.6
20260503023024 63 266 14.0 25.0 0.00 0.00 0.00 43 1013.4
20260503021503 65 280 9.0 25.0 0.00 0.00 0.00 37 1013.0
20260503020003 66 274 5.0 10.0 0.00 0.00 0.00 35 1012.7
20260503014503 67 358 2.0 4.0 0.00 0.00 0.00 33 1012.5
20260503013003 68 319 2.0 4.0 0.00 0.00 0.00 31 1012.4
20260503011504 68 20 6.0 18.0 0.00 0.00 0.00 29 1012.3
20260503010003 68 227 5.0 12.0 0.00 0.00 0.00 32 1013.1
20260503004503 68 255 12.0 27.0 0.00 0.00 0.00 33 1013.3
20260503003024 70 256 13.0 28.0 0.00 0.00 0.00 29 1012.6
20260503001524 72 237 8.0 19.0 0.00 0.00 0.00 23 1012.0
20260503000003 73 242 9.0 18.0 0.00 0.00 0.00 22 1011.8
20260502234503 73 282 6.0 15.0 0.00 0.00 0.00 20 1011.5
20260502233003 74 273 8.0 17.0 0.00 0.00 0.00 20 1011.7
20260502231503 74 277 4.0 8.0 0.00 0.00 0.00 22 1011.8
20260502230003 74 252 3.0 9.0 0.00 0.00 0.00 21 1012.1
20260502224503 74 280 2.0 4.0 0.00 0.00 0.00 21 1012.3
20260502223003 74 273 2.0 5.0 0.00 0.00 0.00 21 1012.6
20260502221503 74 298 2.0 6.0 0.00 0.00 0.00 20 1012.8
20260502220003 74 281 4.0 8.0 0.00 0.00 0.00 20 1013.0
20260502214503 74 306 4.0 8.0 0.00 0.00 0.00 20 1013.0
20260502213024 74 290 3.0 8.0 0.00 0.00 0.00 20 1013.1
20260502211503 74 233 3.0 6.0 0.00 0.00 0.00 19 1013.2
20260502210024 74 293 4.0 8.0 0.00 0.00 0.00 19 1013.3
20260502204524 73 218 3.0 10.0 0.00 0.00 0.00 20 1013.3
20260502203003 73 227 4.0 7.0 0.00 0.00 0.00 19 1013.4
20260502201503 74 215 5.0 13.0 0.00 0.00 0.00 19 1013.4
20260502200024 74 264 4.0 10.0 0.00 0.00 0.00 20 1013.6
20260502194503 73 251 4.0 10.0 0.00 0.00 0.00 20 1013.6
20260502193003 72 229 5.0 10.0 0.00 0.00 0.00 20 1013.8
20260502191503 72 241 3.0 8.0 0.00 0.00 0.00 19 1014.1
20260502190004 72 237 2.0 5.0 0.00 0.00 0.00 17 1014.1
20260502184503 71 224 4.0 8.0 0.00 0.00 0.00 17 1014.3
20260502183024 72 244 2.0 6.0 0.00 0.00 0.00 16 1014.4
20260502181503 72 25 3.0 8.0 0.00 0.00 0.00 15 1014.4
20260502163003 66 26 6.0 11.0 0.00 0.00 0.00 19 1014.5
20260502161503 63 34 6.0 13.0 0.00 0.00 0.00 21 1014.5
20260502151503 56 10 7.0 13.0 0.00 0.00 0.00 25 1014.1
20260502123025 50 14 5.0 9.0 0.00 0.00 0.00 31 1013.3
20260502121503 50 15 5.0 9.0 0.00 0.00 0.00 30 1013.2
20260502114524 51 14 8.0 12.0 0.00 0.00 0.00 28 1013.3
20260502113004 52 12 7.0 12.0 0.00 0.00 0.00 28 1013.2
20260502111524 52 17 5.0 9.0 0.00 0.00 0.00 28 1013.3
20260502110003 52 5 8.0 12.0 0.00 0.00 0.00 28 1013.3
20260502104503 52 13 6.0 10.0 0.00 0.00 0.00 28 1013.2
20260502103003 52 12 6.0 11.0 0.00 0.00 0.00 28 1013.1
20260502101503 52 9 7.0 11.0 0.00 0.00 0.00 29 1013.2
20260502091524 54 11 5.0 9.0 0.00 0.00 0.00 26 1013.5
20260502071524 59 82 3.0 6.0 0.00 0.00 0.00 21 1014.1
20260502070024 60 347 3.0 6.0 0.00 0.00 0.00 21 1013.9
20260502064503 60 54 6.0 12.0 0.00 0.00 0.00 19 1013.9
20260502063003 59 66 4.0 8.0 0.00 0.00 0.00 20 1013.9
20260502061503 59 35 4.0 8.0 0.00 0.00 0.00 25 1013.9
20260502060003 60 21 3.0 6.0 0.00 0.00 0.00 25 1013.9
20260502054524 61 25 3.0 6.0 0.00 0.00 0.00 26 1014.0
20260502053024 62 36 4.0 7.0 0.00 0.00 0.00 22 1014.0
20260502051503 63 71 4.0 8.0 0.00 0.00 0.00 18 1013.9
20260502050003 63 62 3.0 6.0 0.00 0.00 0.00 20 1013.9
20260502044504 64 69 3.0 5.0 0.00 0.00 0.00 20 1013.9
20260502043003 64 96 3.0 5.0 0.00 0.00 0.00 19 1013.8
20260502041503 65 109 3.0 8.0 0.00 0.00 0.00 19 1013.8